TimeIST,TemperatureF,Dew PointF,Humidity,Sea Level PressureIn,VisibilityMPH,Wind Direction,Wind SpeedMPH,Gust SpeedMPH,PrecipitationIn,Events,Conditions,WindDirDegrees,DateUTC
12:00 AM,50.0,39.2,66,30.01,0.9,Variable,1.2,-,N/A,,Smoke,0,2013-01-04 18:30:00
1:00 AM,46.4,39.2,76,29.98,0.9,Calm,Calm,-,N/A,,Smoke,0,2013-01-04 19:30:00
2:00 AM,44.6,41.0,87,29.98,0.9,Calm,Calm,-,N/A,,Smoke,0,2013-01-04 20:30:00
2:30 AM,45,40,75,30.02,1,Calm,Calm,,,,Smoke,,2013-01-04 21:00:00
2:30 AM,44.6,41.0,87,29.98,0.9,Calm,Calm,-,N/A,,Smoke,0,2013-01-04 21:00:00
3:00 AM,42.8,39.2,87,29.98,0.9,Calm,Calm,-,N/A,,Smoke,0,2013-01-04 21:30:00
5:00 AM,42.8,39.2,87,29.95,0.9,Calm,Calm,-,N/A,,Smoke,0,2013-01-04 23:30:00
5:30 AM,41,39,89,29.98,1,Calm,Calm,,,,Mist,,2013-01-05 00:00:00
6:00 AM,42.8,37.4,81,29.95,0.9,Calm,Calm,-,N/A,,Mist,0,2013-01-05 00:30:00
6:30 AM,41.0,39.2,93,29.95,0.9,Calm,Calm,-,N/A,,Mist,0,2013-01-05 01:00:00
7:00 AM,41.0,39.2,93,29.98,0.7,Calm,Calm,-,N/A,,Scattered Clouds,0,2013-01-05 01:30:00
7:30 AM,41.0,37.4,87,29.98,0.7,Calm,Calm,-,N/A,,Scattered Clouds,0,2013-01-05 02:00:00
8:00 AM,41.0,37.4,87,29.98,0.7,Calm,Calm,-,N/A,,Scattered Clouds,0,2013-01-05 02:30:00
8:30 AM,43,38,78,30.02,1,Calm,Calm,,,,Mist,,2013-01-05 03:00:00
9:00 AM,50.0,42.8,76,30.01,0.7,Variable,2.3,-,N/A,,Smoke,0,2013-01-05 03:30:00
10:00 AM,55.4,35.6,47,30.04,1.2,SE,4.6,-,N/A,,Smoke,140,2013-01-05 04:30:00
11:00 AM,59.0,39.2,48,30.04,1.2,Variable,3.5,-,N/A,,Smoke,0,2013-01-05 05:30:00
1:00 PM,64.4,33.8,32,29.98,1.9,West,5.8,-,N/A,,Haze,260,2013-01-05 07:30:00
2:00 PM,64.4,33.8,32,29.95,2.2,NNW,4.6,-,N/A,,Haze,340,2013-01-05 08:30:00
2:30 PM,67,33,17,29.89,1,,3.5,,,,Haze,,2013-01-05 09:00:00
2:30 PM,66.2,30.2,26,29.92,2.2,Variable,5.8,-,N/A,,Haze,0,2013-01-05 09:00:00
4:00 PM,66.2,28.4,24,29.92,2.2,Variable,5.8,-,N/A,,Haze,0,2013-01-05 10:30:00
5:00 PM,64.4,28.4,26,29.92,2.2,Variable,3.5,-,N/A,,Haze,0,2013-01-05 11:30:00
5:30 PM,62.6,28.4,27,29.95,2.2,Variable,3.5,-,N/A,,Haze,0,2013-01-05 12:00:00
6:00 PM,60.8,30.2,31,29.95,2.2,Variable,2.3,-,N/A,,Haze,0,2013-01-05 12:30:00
7:30 PM,53.6,39.2,58,29.98,1.2,ENE,5.8,-,N/A,,Smoke,70,2013-01-05 14:00:00
8:30 PM,52,44,67,29.99,1,East,4.6,,,,Mist,90,2013-01-05 15:00:00
8:30 PM,51.8,42.8,71,30.01,0.8,East,4.6,-,N/A,,Smoke,90,2013-01-05 15:00:00
9:00 PM,50.0,42.8,76,30.01,0.7,ENE,3.5,-,N/A,,Mist,70,2013-01-05 15:30:00
9:30 PM,50.0,42.8,76,30.01,0.7,Variable,2.3,-,N/A,,Mist,0,2013-01-05 16:00:00
10:00 PM,48.2,41.0,76,30.01,0.6,East,4.6,-,N/A,,Mist,90,2013-01-05 16:30:00
11:00 PM,48.2,37.4,66,30.01,0.6,Variable,3.5,-,N/A,,Mist,0,2013-01-05 17:30:00
11:30 PM,46,36,59,30.02,1,East,3.5,,,,Smoke,90,2013-01-05 18:00:00